Location: Escalle
(37.9433°N, 122.5450°W)
Time: 02:20:37
(UTC+00:00)

Daily predictions for brighter satellites

Satellite Brightness Start Highest point End
(mag) Time Altitude Azimuth Time Altitude Azimuth Time Altitude Azimuth
CENTAUR R/B 3.9 01:06:17 10° NW 01:14:26 62° WSW 01:23:00 10° SSE
Radarsat Rocket 4.2 01:11:35 10° SSE 01:17:56 81° WSW 01:23:50 10° NNW
Feng Yun 1-1 Rocket 4.3 01:13:43 10° SE 01:18:55 51° ENE 01:24:08 10° N
USA 215 4.3 01:14:02 10° NNE 01:19:58 38° NNW 01:25:54 10° W
PSLV R/B 4.1 01:18:12 10° N 01:22:21 82° WNW 01:26:27 10° SSW
COSMO-SKYMED 1 4.0 01:19:39 10° NE 01:22:49 19° E 01:25:58 10° SE
BREEZE-M DEB (TANK) 3.8 01:20:26 10° NW 01:25:03 23° N 01:27:27 10° ENE
COSMOS 2428 3.8 01:19:57 10° SW 01:25:21 45° WNW 01:30:49 10° N
YAOGAN 1 4.4 01:25:26 10° E 01:26:42 11° ENE 01:27:58 10° NE
ERBS 3.5 01:24:32 10° NW 01:27:44 46° SW 01:30:57 10° SSE
Cosmos 1346 Rocket 4.4 01:24:26 10° NNW 01:28:09 39° W 01:31:54 10° SSW
Okean 1-7 4.2 01:29:43 10° SE 01:33:04 22° E 01:36:27 10° NE
Meteor 1-5 Rocket 4.1 01:29:13 10° N 01:34:45 86° E 01:40:05 10° S
STARLINK-52 3.3 01:34:57 10° SW 01:38:24 63° SE 01:41:21 14° NE
Cosmos 1733 Rocket 3.2 01:38:24 10° N 01:42:48 81° W 01:47:12 10° S
Aureole 1 Rocket 2.5 01:41:56 10° S 01:44:46 43° ESE 01:47:16 13° NE
Cosmos 1812 3.4 01:42:28 10° SSW 01:46:16 57° W 01:50:05 10° N
STARLINK-29 3.1 01:43:02 10° SW 01:46:34 88° SSE 01:49:18 16° NE
BREEZE-M DEB (TANK) 1.7 01:47:44 10° NW 01:50:04 57° NE 01:51:57 14° ESE
USA 267 3.2 01:45:10 10° SE 01:51:43 80° NE 01:58:16 10° NW
Nadezhda 4 Rocket 4.3 01:49:47 10° SSW 01:56:06 75° W 02:02:26 10° N
ATLAS 3B R/B 4.3 01:50:14 10° NW 01:56:22 37° WSW 02:02:39 10° S
OAO 2 Rocket 3.6 01:51:33 10° WSW 01:56:29 62° S 02:00:28 16° E
YAOGAN 6 3.1 01:55:00 10° SE 01:58:12 34° ENE 02:01:27 10° N
Cosmos 2278 Rocket 2.2 01:52:46 10° NNW 01:58:27 88° WSW 02:04:06 10° SSE
ISS -3.7 01:57:53 10° NW 02:01:11 55° NE 02:03:13 21° ESE
STARLINK-60 4.4 02:04:00 10° WSW 02:07:07 34° NW 02:09:02 19° NNE
Cosmos 921 Rocket 3.8 02:04:08 10° N 02:07:51 28° ENE 02:10:45 14° ESE
NOAA 12 4.1 02:03:37 10° SSE 02:08:56 88° WSW 02:14:15 10° NNW
SL-16 R/B 2.3 02:03:34 10° S 02:09:07 57° ESE 02:13:39 16° NNE
Shenzhou-11 Module 2.6 02:06:46 10° WNW 02:09:17 32° N 02:09:29 32° NNE
SKYMED 2 3.5 02:06:49 10° NNE 02:11:10 70° ESE 02:15:27 10° S
Sich 1 Rocket 4.3 02:07:35 10° NNE 02:11:29 30° ENE 02:15:21 10° SE
Cosmos 1782 Rocket 3.8 02:08:51 10° N 02:12:59 42° E 02:17:05 10° SSE
H-2A R/B 4.5 02:13:21 10° SSW 02:16:44 33° W 02:20:07 10° NNW
Cosmos 2026 Rocket 3.8 02:12:18 10° S 02:18:19 72° E 02:24:21 10° N
Cosmos 1703 Rocket 3.6 02:15:24 10° S 02:19:51 84° W 02:24:21 10° N
Cosmos 2237 Rocket 3.4 02:14:53 10° SW 02:20:14 42° WNW 02:25:38 10° N
Cosmos 1441 Rocket 3.0 02:20:12 10° N 02:24:00 64° E 02:27:43 10° SSE
Cosmos 1174 4.3 02:25:51 10° SSW 02:31:18 77° WNW 02:33:36 29° NNE
Cosmos 614 Rocket 3.8 02:27:22 10° SSW 02:32:28 88° ESE 02:35:53 21° NNE
BREEZE-M DEB (TANK) 3.5 02:31:26 10° NW 02:34:21 24° N 02:34:21 24° N
Okean-O 3.8 02:31:14 10° S 02:35:27 44° W 02:39:42 10° NNW
Envisat 3.8 02:33:47 10° S 02:38:43 52° W 02:43:42 10° NNW
Lacrosse 5 rocket 4.0 02:43:01 10° NW 02:43:53 11° NNW 02:44:44 10° NNW
CZ-4 R/B 1.4 02:40:26 10° S 02:44:21 75° WSW 02:48:14 10° NNW
Abrixas rocket 4.4 02:41:47 10° SSW 02:42:46 17° S 02:42:46 17° S
Cosmos 1655 Rocket 4.0 02:42:01 10° S 02:48:11 59° E 02:51:39 27° NNE
Cosmos 1140 Rocket 3.3 02:43:07 10° SSW 02:48:13 80° ESE 02:49:51 44° NNE
Cosmos 407 Rocket 3.7 02:44:28 10° SSW 02:49:35 67° WNW 02:52:49 23° N
Okean 1 3.7 02:47:03 10° SSW 02:50:59 61° W 02:52:28 35° NNW
Lacrosse 5 3.5 02:47:33 10° S 02:49:53 20° SSE 02:49:53 20° SSE
Cosmos 1943 Rocket 4.0 02:47:40 10° N 02:49:00 16° N 02:49:00 16° N
OAO 3 Rocket 3.3 02:49:04 10° W 02:53:44 62° S 02:54:16 57° SSE
CSL-04 Rocket 3.5 02:48:51 10° SSE 02:54:07 88° WSW 02:59:27 10° NNW
Cosmos 1241 Rocket 4.4 02:51:03 10° SSW 02:57:22 65° ESE 02:58:34 54° ENE
STARLINK-43 4.1 02:53:55 10° SW 02:56:44 50° SW 02:56:44 50° SW
COSMO-SKYMED 1 4.2 02:55:08 10° N 02:59:01 32° WNW 03:02:52 10° SW
Cosmos 1023 Rocket 4.4 02:54:08 10° SSW 02:59:12 78° WNW 03:00:42 46° N
Cosmos 2297 3.6 02:55:57 10° NNW 03:01:40 88° WSW 03:07:19 10° SSE
YAOGAN 1 2.9 02:57:57 10° S 03:02:13 63° W 03:06:32 10° NNW
Cosmos 1743 4.2 03:15:44 34° SW 03:15:44 34° SW 03:18:26 10° SSW
CZ-4C R/B 3.8 03:18:10 10° S 03:19:22 18° S 03:19:22 18° S
Meteor 2-9 Rocket 4.4 03:25:45 10° NNW 03:35:23 22° S 03:37:19 10° S
ISS -0.3 03:35:47 10° W 03:36:12 11° WSW 03:36:12 11° WSW
S3M 4.2 03:33:33 10° NNW 03:39:42 65° W 03:45:44 10° S
Cosmos 2266 Rocket 4.4 03:40:24 10° SSW 03:45:40 59° SW 03:45:40 59° SW
CZ-3B R/B 3.9 03:43:10 10° SSW 03:47:35 26° S 03:47:35 26° S
Centaur D-1AR AC-36 4.4 03:46:12 10° WSW 03:52:55 19° SSW 03:53:40 18° SSW
SL-16 R/B 4.3 03:49:28 10° WSW 03:53:36 20° NW 03:55:34 17° NNW
Centaur D-1A AC-31 4.0 04:31:01 10° WSW 05:11:08 12° ESE 05:16:58 10° ESE
Centaur D-1A AC-31 4.0 04:31:01 10° WSW 05:11:07 12° ESE 05:16:58 10° ESE
Centaur D-1A AC-31 4.0 04:31:01 10° WSW 05:11:08 12° ESE 05:16:59 10° ESE
Centaur D-1A AC-31 4.0 04:31:02 10° WSW 05:11:07 12° ESE 05:16:59 10° ESE
Centaur D-1A AC-31 4.0 04:31:02 10° WSW 05:11:07 12° ESE 05:16:58 10° ESE
Centaur D-1A AC-31 4.0 04:31:01 10° WSW 05:11:07 12° ESE 05:16:59 10° ESE
